Location: Pensacola
(30.4142°N, 87.2155°W)
Time: 12:12:35
(UTC-05:00)

First-Move - Visible Passes

Search period start: 31 May 2023 00:00
Search period end: 10 June 2023 00:00
Orbit: 560 x 638 km, 97.7° (Epoch: 30 May)

Date Brightness Start Highest point End Pass type
(mag) Time Alt. Az. Time Alt. Az. Time Alt. Az.
31 May ? 04:16:41 10° NNE 04:21:07 88° ESE 04:24:10 20° SSW visible
01 Jun ? 04:27:39 10° N 04:32:03 68° WNW 04:35:16 18° SSW visible
02 Jun ? 03:06:07 10° E 03:07:06 11° E 03:08:05 10° ESE visible
02 Jun ? 04:38:42 10° N 04:42:58 49° WNW 04:46:21 16° SW visible
03 Jun ? 03:15:35 10° ENE 03:18:06 15° E 03:20:36 10° SE visible
03 Jun ? 04:49:48 10° N 04:53:51 36° WNW 04:57:24 13° SW visible
04 Jun ? 03:25:49 10° NE 03:29:06 20° E 03:31:43 13° SE visible
04 Jun ? 05:00:59 10° NNW 05:04:42 27° WNW 05:08:24 10° SW visible
05 Jun ? 03:36:17 10° NE 03:40:03 27° E 03:42:44 15° SE visible
05 Jun ? 05:12:17 10° NNW 05:15:31 20° WNW 05:18:45 10° WSW visible
06 Jun ? 03:46:52 10° NNE 03:50:59 36° E 03:53:45 18° SSE visible
07 Jun ? 03:57:33 10° NNE 04:01:52 50° E 04:04:45 19° SSE visible
08 Jun ? 04:08:19 10° NNE 04:12:44 70° E 04:15:43 20° S visible
09 Jun ? 04:19:08 10° N 04:23:35 85° WNW 04:26:41 19° SSW visible
